Regional Weather Roundup
Issued by NWS Wakefield, VA

Home | Current Version | Previous Version | Graphics & Text | Print | Product List | Glossary On
Versions: 1 2 3 4 5 6 7 8 9 10 11 12 13 14 15 16 17 18 19 20 21 22 23 24 25 26 27
000
ASUS41 KAKQ 242215
RWRAKQ

REGIONAL WEATHER ROUNDUP
NATIONAL WEATHER SERVICE WAKEFIELD VA
500 PM EST FRI FEB 24 2017

Note: "fair" indicates few or no clouds below 12,000 feet with no
significant weather and/or obstructions to visibility. * = Denotes
station may not report precipitation (e.g., rain,snow,etc.),
thunder or fog.

VAZ042-051-052>054-056-242300-
NORTHERN VIRGINIA

CITY           SKY/WX    TMP DP  RH WIND       PRES   REMARKS
WASH NATIONAL  MOCLDY    69  53  56 S14       29.81F
DULLES         PTCLDY    73  50  44 SE13G23   29.79F
FORT BELVOIR   CLEAR     73  52  48 SE9       29.80F
QUANTICO       CLEAR     60  51  72 S16       29.82F
FREDERICKSBRG* MOSUNNY   75  53  46 S14G20    29.81F
STAFFORD*      SUNNY     73  52  47 SE9       29.85F
WARRENTON      MOSUNNY   76  46  35 S10G16    29.79F
CULPEPER*      MOSUNNY   76  52  43 S14G20    29.80F
MANASSAS*        N/A     74  52  46 S13       29.80F
LEESBURG*      CLEAR     77  54  44 MISG      29.79F
WINCHESTER     SUNNY     72  50  46 S15G24    29.76F
FRONT ROYAL*   NOT AVBL
LURAY*         NOT AVBL
$$

VAZ048-049-060>072-079>083-242300-
CENTRAL AND SOUTH CENTRAL VIRGINIA

CITY           SKY/WX    TMP DP  RH WIND       PRES   REMARKS
RICHMOND       MOSUNNY   73  55  53 S10       29.84R
CHESTERFIELD*  FAIR      75  46  35 S8        29.85S
PETERSBURG*    MOSUNNY   74  53  48 CALM      29.85S
HANOVER        MOSUNNY   74  52  46 S9        29.85S
TAPPAHANNOCK*  CLEAR     74  48  39 S3        29.85S
QUINTON*       NOT AVBL
CHARLOTTSVILLE SUNNY     74  50  42 S17G24    29.79F
GORDONSVILLE*  NOT AVBL
ORANGE*        SUNNY     73  50  43 SE7       29.81F
LOUISA*        MOSUNNY   77  55  47 S6        29.81S
BUMPASS*       NOT AVBL
FARMVILLE*     SUNNY     73  54  50 S10       29.81S
CREWE*         NOT AVBL
FORT PICKETT*  NOT AVBL
CHASE CITY*    NOT AVBL
CLARKSVILLE*   NOT AVBL
SOUTH HILL*    MOSUNNY   74  57  54 SE6       29.89S
LAWRENCEVILLE* NOT AVBL
EMPORIA*       SUNNY     73  55  53 SE7       29.85S
$$

VAZ088>098-242300-
SOUTHEAST VIRGINIA

CITY           SKY/WX    TMP DP  RH WIND       PRES   REMARKS
NORFOLK        CLEAR     72  59  63 SE13      29.86S
VIRGINIA BEACH PTCLDY    67  57  70 SE9       29.87S
NORFOLK NAVAL  PTCLDY    73  58  59 SE9       29.87S
WEST POINT*    CLEAR     70  56  60 SE6       29.86S
SALUDA*        NOT AVBL
NEWPORT NEWS   CLEAR     69  58  67 E9        29.86S
LANGLEY AFB    CLEAR     68  60  74 SE7       29.86S
FORT EUSTIS    CLEAR     76  59  55 SE8       29.83F
WILLIAMSBURG*  CLEAR     75  61  60 SE6       29.86S
HR EXEC AP*    NOT AVBL
FRANKLIN*      SUNNY     75  55  49 SE8       29.85F
US460-WAKEFLD  SUNNY     75  56  51 VRB7      29.84F
$$

VAZ020-022-025-037-045-242300-
WEST CENTRAL AND SOUTHWEST VIRGINIA

CITY           SKY/WX    TMP DP  RH WIND       PRES   REMARKS
STAUNTON*      MOSUNNY   71  51  49 S10G17    29.81S
WAYNESBORO*    NOT AVBL
HOT SPRINGS VA MOSUNNY   61  45  55 S9G17     29.87F
LYNCHBURG      MOSUNNY   72  50  45 SE13      29.82F
DANVILLE       PTSUNNY   73  53  49 VRB7      29.82S
SOUTH BOSTON*  NOT AVBL
MARTINSVILLE   MOSUNNY   72  49  44 S3        29.84S
ROANOKE        MOSUNNY   72  50  45 S15       29.81F
BLACKSBURG     SUNNY     70  51  52 S7        29.85S
DUBLIN*        SUNNY     69  51  53 S10       29.83S
MARION*        SUNNY     70  50  49 SE6       29.82F
HILLSVILLE*    MOSUNNY   65  52  63 S9        29.84S
RICHLANDS*     FAIR      72  45  37 SW7       29.78S
WISE*          SUNNY     72  41  33 S13       29.78F
ABINGDON*      SUNNY     76  45  33 SW12      29.76F
$$

MDZ021>025-VAZ099-100-242300-
SOUTHERN MARYLAND AND THE DELMARVA PENINSULA

CITY           SKY/WX    TMP DP  RH WIND       PRES   REMARKS
PATUXENT RIVER PTCLDY    60  55  83 SE9       29.86S
BAY BRIDGE APT CLEAR     68  55  64 S10       29.84F
LEONARDTOWN    CLEAR     68  55  64 SE10      29.87S
DOVER          PTCLDY    66  59  78 E8        29.85S
GEORGETOWN     PTCLDY    70  57  63 S15       29.88S
EASTON         PTCLDY    72  55  56 S13       29.90S
CAMBRIDGE      CLEAR     70  57  64 S13       29.87S
SALISBURY      PTCLDY    68  60  75 S9        29.88S
OCEAN CITY     PTCLDY    57  54  89 S5        29.91F
WALLOPS ISLAND MOCLDY    61  59  93 S8        29.91S
ACCOMACK*      MOCLDY    64  60  85 SE9       29.89F
$$

NCZ012>017-030>032-242300-
NORTH CENTRAL AND EASTERN NORTH CAROLINA

CITY           SKY/WX    TMP DP  RH WIND       PRES   REMARKS
ROANOKE RAPIDS FAIR      75  57  53 SE5       29.84S
RALEIGH        MOSUNNY   76  52  43 SW7       29.83F
ELIZABETH CITY PTCLDY    69  59  70 SE13      29.88S
AHOSKIE*         N/A     74  56  53 SE5       29.85F
EDENTON*       CLOUDY    71  60  68 E5        29.88R
CURRITUCK*     CLEAR     72  60  66 SE5       29.89S
KILL DEVIL HLS NOT AVBL
MANTEO         CLEAR     71  59  66 S10       29.89S
CAPE HATTERAS  CLEAR     72  59  63 E8        29.87S HAZE
TARBORO*       NOT AVBL
GOLDSBORO      SUNNY     79  54  41 SE5       29.81F
WASHINGTON     SUNNY     73  60  64 SE10      29.86R
GREENVILLE     MOSUNNY   75  59  57 SE9       29.88S
NEW BERN       SUNNY     72  61  68 SE9       29.87R
WILMINGTON     SUNNY     74  60  61 SE6       29.85S
$$

VAZ048-242300-
ELSEWHERE

CITY           SKY/WX    TMP DP  RH WIND       PRES   REMARKS
HARRISBURG PA  PTCLDY    70  53  54 SE14      29.77S
BALTIMORE      PTCLDY    69  56  62 SE14G22   29.81F
ANNAPOLIS      CLEAR     68  56  65 S12       29.84S
ANDREWS AFB    CLEAR     71  52  50 S14       29.81F
PHILADELPHIA   MOCLDY    70  54  56 S10       29.86S
HENDERSON NC   SUNNY     71  52  50 S7        29.84S
GREENSBORO     MOSUNNY   74  51  44 SW10      29.81F
ROCKY MOUNT    SUNNY     77  56  48 SE3       29.83F
$$

VAZ100-242300-
MARINE

STATION/POSITION TIME  TEMP    WIND        PRES    WAVE   SWELL
                       AIR SEA DIR/SP/G            HT/PER HT/PER
                 (UTC) (F)     (DEG/KT/KT) (MB)    (FT/S) (FT/S)
CAPE MAY NJ      2148   58 46  150/ 12/ 14 1011.7F
LEWES DE         2148   67 45  170/  7/ 14 1011.9S
OCEAN-CITY-INLET 2148   52 46  220/  5/  5 1013.3F
WACHAPREAGUE VA  2148   61 57  140/  5/  6 1012.5F
THOMAS POINT MD  2200   59 45  180/ 16/ 18   N/A
GOOSES REEF MD   2200   52 45  170/ 12/ 14 1011.7    1/ 2
COVE POINT MD    2148   54     190/ 13/ 15 1011.8S
SOLOMONS ISLAND  2148   58 47  130/ 12/ 13   N/A
BISHOPS HEAD MD  2148   54 52  140/ 10/ 11 1011.8F
PINEY POINT MD   2142          160/ 15/ 16   N/A
POTOMAC MD       2200   55 48  170/ 12/ 14 1010.5    1/ 2
CAMBRIDGE MD     2148   70 44  160/ 10/ 15 1010.5F
LEWISETTA VA     2148   67 53  160/ 15/ 20 1010.7R
RAPPAHANNOCK LGT 2148          130/ 12/ 13 1012.4F
YORK RVR RNG VA  2148   54     130/ 18/ 19 1010.5F
YORKTOWN VA      2148   63 51  140/  9/ 10 1010.7F
JAMESTOWN VA     2200   70 54  100/  8/ 12   N/A     0
DOMINION TERM VA 2148   65      80/  6/  8 1011.2F
KIPTOPEKE VA     2148      51  140/ 11/ 14   N/A
CHES BAY BRIDGE  2148   61 47  140/  9/ 15 1011.4F
CAPE HENRY VA    2148   60     140/ 11/ 14   N/A
WILLOUBY STN VA  2148   68     140/ 14/ 16 1012.0F
S CRANEY ISL VA  2148   72     250/  2/  6 1010.8F
CAPE HENRY BUOY  2142      52                N/A     4/11   2/11
OFFSHORE WE BUOY 2151      52                N/A     5/10   2/11
64NM E OF VA BCH 2150   59 56  120/  6/  8 1012.5S   6/11   7/11
DUCK PIER NC     2148   61 49  120/  9/ 10 1011.5F
44100 DUCK FRF   2135      53                N/A     5/ 8   2/11
44056 DUCK FRF   2130      55                N/A     5/13   3/13
OREGON INLET NC  2148           40/  5/  5 1012.0S
HATTERAS NC      2148   70 62   90/  7/ 10 1011.3R
DIAMOND SHLS NC  2150   72 77  100/ 14/ 19 1011.0R   7/ 9   7/ 9
CAPE LOOKOUT NC  2100   68      70/  5/  6 1010.8F
$$




USA.gov is the U.S. government's official web portal to all federal, state and local government web resources and services.